SCP
0 0 0 0 0 0 0 0 0 0 0 0 0 0 0 0 0 0 0 0 0 0 0 0 0 0 0 0 0 0 0 0 0 0 0 0 0 0 0 0 0 0 0 0
0 0 0 0 0 0 0 0 0 0 0 0 0 0 0 0 0 0 0 0 0 0 0 0 0 0 0 0 0 0 0 0 0 0 0 0 0 0 -0 0 -0 0 0 0
0 0 0 0 0 0 0 0 0 0 0 0 0 0 0 0 0 0 0 0 0 0 0 0 0 0 0 0 0 0 0 0 0 0 0 0 0 0 0 0 -0 0 0 0
0 0 0 0 0 0 0 0 0 0 0 0 0 0 0 0 0 0 0 0 0 0 0 0 0 0 0 -0 -0 -0 -0 -0 -0 0 0 0 0 0 0 0 -0 -0 -0 0
0 0 0 0 0 0 0 0 0 0 0 0 0 0 0 0 0 0 0 0 0 0 0 0 0 0 -0 -0 -0 -0 0 0 0 -0 0 0 0 0 0 0 0 -0 -0 -0
0 0 0 0 0 0 0 0 0 0 0 0 0 0 0 0 0 0 0 0 0 0 0 0 0 -0 -0 -0 -0 -0 -0 -0 -0 -0 0 0 0 0 0 0 0 0 0 -0
0 0 0 0 0 0 0 0 0 0 0 0 0 0 0 0 0 0 0 0 0 0 0 0 -0 -0 -0 -0 -0 0 0 0 0 0 -0 0 0 0 0 0 -0 -0 -0 -0
0 0 0 0 0 0 0 0 0 0 0 0 0 0 0 0 0 0 0 0 0 0 0 0 -0 -0 -0 -0 -0 -0 -0 0 0 0 0 0 0 0 0 0 0 -0 -0 -0
0 0 0 0 0 0 0 0 0 0 0 0 0 0 0 0 0 0 0 0 0 0 0 0 0 -0 -0 -0 -0 -0 -0 0 0 0 0 0 0 0 0 0 0 0 0 -0
0 0 0 0 0 0 0 0 0 0 0 0 0 0 0 0 0 0 0 0 0 0 0 0 -0 -0 -0 -0 -0 -0 -0 -0 0 0 0 0 0 0 0 0 0 0 0 0
0 0 0 0 0 0 0 0 0 0 0 0 0 0 0 0 0 0 0 0 0 0 0 0 0 -0 -0 -0 -0 -0 -0 -0 -0 -0 0 0 0 0 0 0 0 0 0 -0
0 0 0 0 0 0 0 0 0 0 0 0 0 0 0 0 0 0 0 0 0 0 0 0 0 -0 -0 -0 -0 -0 -0 -0 -0 -0 -0 0 0 0 0 0 0 0 0 0
0 0 0 0 0 0 0 0 0 0 0 0 0 0 0 0 0 0 0 0 0 0 0 0 0 -0 -0 -0 -0 -0 -0 -0 -0 -0 -0 0 0 0 0 0 0 0 0 0
0 0 0 0 0 0 0 0 0 0 0 0 0 0 0 0 0 0 0 0 0 0 0 0 0 -0 -0 -0 -0 -0 -0 -0 -0 -0 -0 -0 0 0 0 0 0 0 0 0
0 0 0 0 0 0 0 0 0 0 0 0 0 -0 0 0 0 0 0 0 0 0 0 0 0 0 -0 -0 -0 -0 -0 -0 -0 -0 -0 -0 -0 0 0 0 0 0 0 0
0 0 0 0 0 0 0 0 0 -0 -0 -0 0 -0 0 0 0 0 0 0 0 0 0 0 0 0 0 -0 -0 -0 -0 -0 -0 -0 -0 -0 -0 0 0 0 0 0 0 0
0 0 0 0 0 0 0 -0 0 0 0 0 0 -0 0 0 0 0 0 0 0 0 0 0 0 0 0 0 0 0 0 -0 -0 -0 -0 -0 -0 -0 0 0 0 0 0 0
0 0 0 0 0 0 0 0 0 0 0 0 0 0 0 0 -0 -0 -0 -0 -0 -0 0 0 0 0 0 0 0 0 0 0 -0 -0 -0 -0 -0 -0 0 0 0 0 0 0
0 0 0 0 0 0 0 0 0 0 0 -0 -0 -0 0 0 0 0 0 -0 -0 -0 0 0 0 0 0 0 0 0 0 0 -0 -0 -0 -0 -0 -0 -0 -0 0 0 0 0
0 0 0 0 0 0 0 0 0 0 0 0 0 0 0 0 0 0 0 0 0 0 0 0 0 0 0 0 0 0 0 0 0 -0 -0 -0 -0 -0 -0 -0 -0 -0 0 0
0 0 0 0 0 0 0 0 0 0 0 0 0 0 0 0 0 0 0 0 0 0 0 0 0 0 0 0 0 0 0 0 -0 -0 -0 -0 -0 -0 -0 -0 -0 -0 -0 0
0 0 0 0 0 0 0 0 0 0 0 0 0 0 0 0 0 0 0 0 0 0 0 0 0 0 0 0 0 0 0 0 -0 -0 -0 -0 -0 -0 -0 -0 -0 -0 0 0
0 0 0 0 0 0 0 0 0 0 0 0 0 0 0 0 0 0 0 0 0 0 0 0 0 0 0 0 0 0 0 0 -0 -0 -0 -0 -0 -0 -0 -0 -0 -0 0 0
0 0 0 0 0 0 0 -0 0 0 0 0 0 0 0 0 0 0 0 0 0 0 0 0 0 0 0 0 0 0 0 0 0 0 -0 -0 -0 -0 -0 -0 -0 -0 -0 0
0 0 0 0 0 0 0 -0 -0 -0 0 0 0 0 0 0 0 0 0 0 0 0 0 0 0 0 0 0 0 0 0 0 0 0 -0 -0 -0 -0 -0 -0 -0 -0 0 0
0 0 0 0 0 0 0 0 0 0 0 0 0 0 0 0 0 0 0 0 0 0 0 0 0 0 0 0 0 0 0 0 0 0 -0 -0 -0 -0 -0 -0 -0 0 0 0
Wind_Speed_500mb
4 7 17 31 11 5 13 9 9 5 8 13 25 23 17 23 16 12 2 8 17 25 29 36 46 54 56 58 60 62 64 62 62 67 69 55 54 47 46 41 28 29 25 18
5 10 5 15 12 11 13 12 7 6 7 8 7 22 16 28 21 10 1 8 16 22 29 36 45 50 56 63 62 61 59 61 64 57 59 54 46 39 37 29 30 20 15 9
5 6 11 6 12 14 4 9 10 1 10 4 12 13 13 19 16 12 4 5 13 20 25 34 40 48 55 57 60 60 65 67 63 59 54 42 37 27 42 56 47 29 28 19
6 6 7 12 8 6 9 6 14 16 10 6 3 8 10 18 23 20 10 4 9 14 17 27 30 38 48 53 52 56 65 69 70 66 61 64 56 57 61 56 50 47 27 20
8 13 11 7 3 2 6 11 11 7 5 4 10 8 7 14 24 24 20 10 7 9 15 23 28 32 39 46 54 58 62 64 66 74 74 79 80 79 72 61 65 68 60 45
8 3 3 5 7 5 25 14 10 6 1 7 7 8 8 13 16 33 26 17 11 9 14 24 28 36 50 53 57 62 69 71 71 71 69 70 73 77 79 81 86 84 79 75
4 5 3 6 14 9 4 10 4 5 7 7 5 8 15 12 13 33 39 29 20 17 22 27 34 34 38 46 50 54 55 54 56 60 67 73 77 74 71 70 70 68 68 68
8 8 18 11 3 7 16 6 7 10 7 2 4 13 4 4 16 33 36 32 27 27 33 37 29 33 39 39 42 47 51 51 54 56 59 62 62 62 62 63 64 68 66 62
12 8 1 2 3 1 11 13 5 9 3 4 8 8 8 16 19 31 35 33 33 32 38 31 30 29 30 31 37 41 44 47 49 51 52 55 55 56 55 56 57 57 53 49
16 3 2 5 3 3 8 2 6 2 8 10 6 11 13 31 37 33 37 41 40 38 37 33 28 25 26 25 28 31 38 43 44 43 45 46 45 46 45 45 49 49 47 44
11 1 5 6 20 20 10 8 9 4 4 6 4 9 1 35 47 47 51 50 48 46 43 40 31 24 21 19 20 26 30 33 35 36 36 40 42 45 46 48 48 48 45 45
18 5 11 11 5 3 3 10 16 11 13 6 3 11 2 5 44 57 56 53 50 51 50 43 34 25 19 17 15 17 23 26 29 31 34 37 39 41 43 45 46 46 47 46
21 11 7 4 2 5 15 20 14 4 2 16 11 8 3 7 36 54 58 56 53 56 56 48 40 32 23 16 11 14 20 21 25 27 29 33 39 41 43 46 47 48 49 50
15 8 9 12 6 10 13 22 34 25 10 12 28 23 11 19 32 51 58 61 60 62 61 56 47 38 29 20 10 10 14 14 18 22 26 31 33 37 39 42 43 45 47 49
4 8 6 7 2 7 7 14 36 45 45 23 22 41 27 34 38 68 66 59 61 62 62 64 56 46 35 27 15 6 5 7 12 18 23 29 33 37 39 40 44 45 47 49
5 4 3 6 7 12 14 27 28 44 47 48 43 49 13 43 41 50 63 67 69 69 73 72 62 52 43 34 22 12 6 5 10 17 22 28 32 35 39 42 43 46 47 48
18 12 8 8 1 4 13 38 46 34 37 42 36 49 25 23 40 61 71 81 85 88 92 83 73 62 51 40 29 18 13 8 11 17 21 28 31 35 40 41 43 44 44 45
10 9 1 4 4 14 4 6 20 44 43 44 39 33 30 41 72 71 88 102 92 95 99 92 81 69 57 46 36 25 19 13 13 14 19 25 30 35 36 37 39 39 40 43
9 9 7 7 11 17 23 13 16 19 18 52 56 48 40 28 28 39 79 98 108 108 103 96 86 73 62 51 40 32 25 18 14 13 16 21 28 29 31 34 36 36 41 44
9 5 6 6 9 13 5 5 12 9 16 24 43 40 32 36 22 27 74 86 86 94 98 99 88 76 66 57 46 38 31 23 18 14 14 19 23 26 28 33 34 37 41 44
11 7 25 12 14 17 18 13 22 9 7 9 22 35 47 33 36 17 43 76 87 98 96 94 91 82 69 60 51 44 35 27 21 15 13 17 20 24 28 32 34 37 42 44
23 21 12 7 13 31 30 18 19 6 10 11 10 25 56 57 32 32 25 61 83 93 96 98 95 87 76 64 55 48 39 31 24 18 14 15 19 22 27 29 33 35 39 42
13 14 14 24 18 3 59 13 49 14 11 15 12 13 22 42 44 37 42 54 77 91 100 101 98 88 79 69 58 52 43 36 28 21 15 15 19 21 25 26 30 30 37 41
12 10 7 6 21 34 38 65 32 42 23 21 18 13 14 25 38 39 46 57 70 88 102 103 102 95 87 75 63 51 46 39 32 25 19 17 20 20 23 24 27 28 34 37
10 32 18 15 18 17 43 65 70 71 51 43 32 26 20 24 30 45 50 60 69 85 99 108 107 99 88 78 70 62 51 43 34 29 23 20 21 21 22 22 23 24 30 35
21 16 20 22 38 30 20 42 69 74 73 73 56 43 33 32 34 41 52 60 70 85 104 110 106 98 92 84 76 67 58 47 40 33 27 25 23 21 22 20 20 21 25 31
Wind_Direction_500mb
53 193 201 191 179 93 128 151 160 124 143 210 230 249 220 195 197 203 269 1 10 16 10 14 18 15 16 17 18 13 4 6 6 11 8 6 5 2 7 2 353 330 310 285
151 224 83 111 129 129 136 148 156 124 156 235 254 258 234 195 202 197 168 15 13 15 18 23 26 22 22 26 27 24 21 19 18 18 17 20 13 16 22 43 37 38 26 8
180 91 138 137 155 151 160 194 174 43 161 218 293 251 198 195 188 165 134 47 27 24 25 35 27 29 35 36 36 38 37 30 27 29 18 24 29 31 33 37 40 53 66 79
80 130 173 149 180 216 191 160 144 140 186 251 299 286 201 184 193 195 175 115 49 37 42 48 36 41 45 48 45 44 46 43 40 47 46 45 45 48 53 49 50 61 67 75
155 157 162 172 85 273 112 135 117 119 148 302 188 242 139 180 207 197 183 159 99 67 67 60 49 50 55 55 53 52 52 50 46 49 51 55 55 59 59 60 56 55 60 70
89 73 19 84 67 22 139 109 81 85 153 237 150 237 219 192 210 185 169 161 140 116 91 87 76 82 77 70 67 63 61 60 56 53 52 52 54 56 57 57 58 60 61 63
141 123 97 162 99 118 244 167 192 219 195 256 132 205 276 192 185 178 164 161 153 129 118 114 110 87 71 67 63 62 60 58 55 55 57 58 56 57 58 56 56 54 54 53
160 222 182 166 235 185 198 268 224 227 216 119 139 232 210 113 136 154 154 154 150 140 130 128 112 94 83 71 64 63 62 56 52 52 53 52 51 50 51 52 54 57 54 52
172 253 121 32 55 236 176 217 23 97 59 269 215 236 186 154 147 155 160 163 162 154 143 138 127 108 92 76 68 63 60 53 47 44 46 48 49 47 47 47 48 47 45 44
185 186 189 146 140 227 242 64 144 253 216 241 206 268 231 191 185 180 178 179 173 166 162 154 145 124 104 86 73 62 49 41 39 39 39 42 44 45 46 46 44 42 41 38
131 216 127 165 206 188 167 199 215 265 207 243 263 239 126 199 188 182 183 183 179 175 173 166 160 146 125 100 76 63 48 40 40 42 45 46 44 43 41 41 39 37 33 31
177 162 184 207 156 293 268 246 200 216 199 231 301 265 112 204 187 182 181 184 184 180 177 175 173 166 148 123 90 64 43 45 51 46 45 44 44 43 39 37 34 32 31 28
169 205 158 197 198 190 222 211 224 153 84 204 186 238 89 188 181 185 180 185 185 185 183 183 182 179 170 149 118 67 46 48 49 45 42 43 41 37 37 34 30 29 27 26
161 194 233 209 125 127 199 204 203 203 211 200 230 245 190 190 188 186 189 185 185 189 189 187 187 188 180 168 141 72 49 50 49 48 44 45 43 40 38 36 33 31 28 26
151 231 231 248 153 193 217 205 201 209 223 216 237 229 214 196 193 194 189 185 186 191 193 192 191 191 189 175 161 124 65 58 55 52 48 50 46 43 41 38 34 31 29 27
73 255 257 263 212 228 251 242 222 223 231 242 250 262 239 206 195 184 186 186 192 194 197 196 193 193 193 181 174 176 168 127 80 64 60 53 48 46 41 37 32 28 23 22
157 165 176 256 291 256 262 226 218 217 225 219 224 241 202 183 187 191 191 193 196 197 199 198 196 193 191 186 180 182 179 153 97 74 63 57 51 44 38 33 29 26 26 27
159 160 166 266 259 242 214 150 221 228 239 218 242 236 205 201 204 202 201 197 199 200 201 200 196 192 189 189 184 181 179 160 109 83 64 58 52 42 36 33 32 32 34 34
186 154 165 222 223 311 289 182 176 182 260 223 229 238 225 211 203 214 209 210 209 206 203 200 197 191 188 189 187 181 178 161 127 100 75 65 54 43 37 39 39 40 44 41
153 83 224 150 234 244 267 183 168 132 279 219 215 228 207 166 219 224 210 214 205 208 204 199 195 192 190 187 190 183 179 163 147 124 93 71 57 49 45 44 45 47 48 46
161 167 214 203 242 275 231 162 134 136 255 165 195 208 180 196 215 224 215 210 207 208 204 200 193 192 189 189 188 185 179 165 156 141 112 80 64 58 52 47 49 47 46 44
170 169 189 160 216 259 151 121 184 200 174 168 193 191 194 208 215 216 205 207 198 204 201 199 191 190 188 190 189 187 178 168 166 152 123 90 76 70 60 52 52 46 45 42
201 193 177 194 212 74 187 219 202 200 189 192 177 170 193 203 214 210 202 197 203 202 198 195 190 187 188 190 192 185 179 173 170 158 138 107 94 83 70 63 58 51 48 42
231 174 208 138 226 232 222 230 224 220 217 199 185 176 204 217 214 207 202 201 198 199 196 190 188 186 187 188 187 187 180 177 172 164 147 124 110 96 86 75 65 55 52 47
178 154 182 258 276 287 252 235 233 228 230 225 230 241 250 231 222 214 206 204 201 200 194 189 188 187 186 186 185 183 183 181 177 167 155 139 125 113 101 89 74 60 56 53
190 167 188 222 190 211 234 237 229 227 233 235 234 236 237 227 223 216 213 211 205 199 192 189 188 186 187 187 186 183 181 182 178 172 163 149 137 129 116 104 88 70 61 56
Wind_Speed_850mb
4 7 17 31 11 5 13 9 9 5 8 13 25 23 17 23 16 12 2 8 17 25 29 36 46 54 56 58 60 62 64 62 62 67 69 55 54 47 46 41 28 29 25 18
5 10 5 15 12 11 13 12 7 6 7 8 7 22 16 28 21 10 1 8 16 22 29 36 45 50 56 63 62 61 59 61 64 57 59 54 46 39 37 29 30 20 15 9
5 6 11 6 12 14 4 9 10 1 10 4 12 13 13 19 16 12 4 5 13 20 25 34 40 48 55 57 60 60 65 67 63 59 54 42 37 27 42 56 47 29 28 19
6 6 7 12 8 6 9 6 14 16 10 6 3 8 10 18 23 20 10 4 9 14 17 27 30 38 48 53 52 56 65 69 70 66 61 64 56 57 61 56 50 47 27 20
8 13 11 7 3 2 6 11 11 7 5 4 10 8 7 14 24 24 20 10 7 9 15 23 28 32 39 46 54 58 62 64 66 74 74 79 80 79 72 61 65 68 60 45
8 3 3 5 7 5 25 14 10 6 1 7 7 8 8 13 16 33 26 17 11 9 14 24 28 36 50 53 57 62 69 71 71 71 69 70 73 77 79 81 86 84 79 75
4 5 3 6 14 9 4 10 4 5 7 7 5 8 15 12 13 33 39 29 20 17 22 27 34 34 38 46 50 54 55 54 56 60 67 73 77 74 71 70 70 68 68 68
8 8 18 11 3 7 16 6 7 10 7 2 4 13 4 4 16 33 36 32 27 27 33 37 29 33 39 39 42 47 51 51 54 56 59 62 62 62 62 63 64 68 66 62
12 8 1 2 3 1 11 13 5 9 3 4 8 8 8 16 19 31 35 33 33 32 38 31 30 29 30 31 37 41 44 47 49 51 52 55 55 56 55 56 57 57 53 49
16 3 2 5 3 3 8 2 6 2 8 10 6 11 13 31 37 33 37 41 40 38 37 33 28 25 26 25 28 31 38 43 44 43 45 46 45 46 45 45 49 49 47 44
11 1 5 6 20 20 10 8 9 4 4 6 4 9 1 35 47 47 51 50 48 46 43 40 31 24 21 19 20 26 30 33 35 36 36 40 42 45 46 48 48 48 45 45
18 5 11 11 5 3 3 10 16 11 13 6 3 11 2 5 44 57 56 53 50 51 50 43 34 25 19 17 15 17 23 26 29 31 34 37 39 41 43 45 46 46 47 46
21 11 7 4 2 5 15 20 14 4 2 16 11 8 3 7 36 54 58 56 53 56 56 48 40 32 23 16 11 14 20 21 25 27 29 33 39 41 43 46 47 48 49 50
15 8 9 12 6 10 13 22 34 25 10 12 28 23 11 19 32 51 58 61 60 62 61 56 47 38 29 20 10 10 14 14 18 22 26 31 33 37 39 42 43 45 47 49
4 8 6 7 2 7 7 14 36 45 45 23 22 41 27 34 38 68 66 59 61 62 62 64 56 46 35 27 15 6 5 7 12 18 23 29 33 37 39 40 44 45 47 49
5 4 3 6 7 12 14 27 28 44 47 48 43 49 13 43 41 50 63 67 69 69 73 72 62 52 43 34 22 12 6 5 10 17 22 28 32 35 39 42 43 46 47 48
18 12 8 8 1 4 13 38 46 34 37 42 36 49 25 23 40 61 71 81 85 88 92 83 73 62 51 40 29 18 13 8 11 17 21 28 31 35 40 41 43 44 44 45
10 9 1 4 4 14 4 6 20 44 43 44 39 33 30 41 72 71 88 102 92 95 99 92 81 69 57 46 36 25 19 13 13 14 19 25 30 35 36 37 39 39 40 43
9 9 7 7 11 17 23 13 16 19 18 52 56 48 40 28 28 39 79 98 108 108 103 96 86 73 62 51 40 32 25 18 14 13 16 21 28 29 31 34 36 36 41 44
9 5 6 6 9 13 5 5 12 9 16 24 43 40 32 36 22 27 74 86 86 94 98 99 88 76 66 57 46 38 31 23 18 14 14 19 23 26 28 33 34 37 41 44
11 7 25 12 14 17 18 13 22 9 7 9 22 35 47 33 36 17 43 76 87 98 96 94 91 82 69 60 51 44 35 27 21 15 13 17 20 24 28 32 34 37 42 44
23 21 12 7 13 31 30 18 19 6 10 11 10 25 56 57 32 32 25 61 83 93 96 98 95 87 76 64 55 48 39 31 24 18 14 15 19 22 27 29 33 35 39 42
13 14 14 24 18 3 59 13 49 14 11 15 12 13 22 42 44 37 42 54 77 91 100 101 98 88 79 69 58 52 43 36 28 21 15 15 19 21 25 26 30 30 37 41
12 10 7 6 21 34 38 65 32 42 23 21 18 13 14 25 38 39 46 57 70 88 102 103 102 95 87 75 63 51 46 39 32 25 19 17 20 20 23 24 27 28 34 37
10 32 18 15 18 17 43 65 70 71 51 43 32 26 20 24 30 45 50 60 69 85 99 108 107 99 88 78 70 62 51 43 34 29 23 20 21 21 22 22 23 24 30 35
21 16 20 22 38 30 20 42 69 74 73 73 56 43 33 32 34 41 52 60 70 85 104 110 106 98 92 84 76 67 58 47 40 33 27 25 23 21 22 20 20 21 25 31
Wind_Direction_850mb
53 193 201 191 179 93 128 151 160 124 143 210 230 249 220 195 197 203 269 1 10 16 10 14 18 15 16 17 18 13 4 6 6 11 8 6 5 2 7 2 353 330 310 285
151 224 83 111 129 129 136 148 156 124 156 235 254 258 234 195 202 197 168 15 13 15 18 23 26 22 22 26 27 24 21 19 18 18 17 20 13 16 22 43 37 38 26 8
180 91 138 137 155 151 160 194 174 43 161 218 293 251 198 195 188 165 134 47 27 24 25 35 27 29 35 36 36 38 37 30 27 29 18 24 29 31 33 37 40 53 66 79
80 130 173 149 180 216 191 160 144 140 186 251 299 286 201 184 193 195 175 115 49 37 42 48 36 41 45 48 45 44 46 43 40 47 46 45 45 48 53 49 50 61 67 75
155 157 162 172 85 273 112 135 117 119 148 302 188 242 139 180 207 197 183 159 99 67 67 60 49 50 55 55 53 52 52 50 46 49 51 55 55 59 59 60 56 55 60 70
89 73 19 84 67 22 139 109 81 85 153 237 150 237 219 192 210 185 169 161 140 116 91 87 76 82 77 70 67 63 61 60 56 53 52 52 54 56 57 57 58 60 61 63
141 123 97 162 99 118 244 167 192 219 195 256 132 205 276 192 185 178 164 161 153 129 118 114 110 87 71 67 63 62 60 58 55 55 57 58 56 57 58 56 56 54 54 53
160 222 182 166 235 185 198 268 224 227 216 119 139 232 210 113 136 154 154 154 150 140 130 128 112 94 83 71 64 63 62 56 52 52 53 52 51 50 51 52 54 57 54 52
172 253 121 32 55 236 176 217 23 97 59 269 215 236 186 154 147 155 160 163 162 154 143 138 127 108 92 76 68 63 60 53 47 44 46 48 49 47 47 47 48 47 45 44
185 186 189 146 140 227 242 64 144 253 216 241 206 268 231 191 185 180 178 179 173 166 162 154 145 124 104 86 73 62 49 41 39 39 39 42 44 45 46 46 44 42 41 38
131 216 127 165 206 188 167 199 215 265 207 243 263 239 126 199 188 182 183 183 179 175 173 166 160 146 125 100 76 63 48 40 40 42 45 46 44 43 41 41 39 37 33 31
177 162 184 207 156 293 268 246 200 216 199 231 301 265 112 204 187 182 181 184 184 180 177 175 173 166 148 123 90 64 43 45 51 46 45 44 44 43 39 37 34 32 31 28
169 205 158 197 198 190 222 211 224 153 84 204 186 238 89 188 181 185 180 185 185 185 183 183 182 179 170 149 118 67 46 48 49 45 42 43 41 37 37 34 30 29 27 26
161 194 233 209 125 127 199 204 203 203 211 200 230 245 190 190 188 186 189 185 185 189 189 187 187 188 180 168 141 72 49 50 49 48 44 45 43 40 38 36 33 31 28 26
151 231 231 248 153 193 217 205 201 209 223 216 237 229 214 196 193 194 189 185 186 191 193 192 191 191 189 175 161 124 65 58 55 52 48 50 46 43 41 38 34 31 29 27
73 255 257 263 212 228 251 242 222 223 231 242 250 262 239 206 195 184 186 186 192 194 197 196 193 193 193 181 174 176 168 127 80 64 60 53 48 46 41 37 32 28 23 22
157 165 176 256 291 256 262 226 218 217 225 219 224 241 202 183 187 191 191 193 196 197 199 198 196 193 191 186 180 182 179 153 97 74 63 57 51 44 38 33 29 26 26 27
159 160 166 266 259 242 214 150 221 228 239 218 242 236 205 201 204 202 201 197 199 200 201 200 196 192 189 189 184 181 179 160 109 83 64 58 52 42 36 33 32 32 34 34
186 154 165 222 223 311 289 182 176 182 260 223 229 238 225 211 203 214 209 210 209 206 203 200 197 191 188 189 187 181 178 161 127 100 75 65 54 43 37 39 39 40 44 41
153 83 224 150 234 244 267 183 168 132 279 219 215 228 207 166 219 224 210 214 205 208 204 199 195 192 190 187 190 183 179 163 147 124 93 71 57 49 45 44 45 47 48 46
161 167 214 203 242 275 231 162 134 136 255 165 195 208 180 196 215 224 215 210 207 208 204 200 193 192 189 189 188 185 179 165 156 141 112 80 64 58 52 47 49 47 46 44
170 169 189 160 216 259 151 121 184 200 174 168 193 191 194 208 215 216 205 207 198 204 201 199 191 190 188 190 189 187 178 168 166 152 123 90 76 70 60 52 52 46 45 42
201 193 177 194 212 74 187 219 202 200 189 192 177 170 193 203 214 210 202 197 203 202 198 195 190 187 188 190 192 185 179 173 170 158 138 107 94 83 70 63 58 51 48 42
231 174 208 138 226 232 222 230 224 220 217 199 185 176 204 217 214 207 202 201 198 199 196 190 188 186 187 188 187 187 180 177 172 164 147 124 110 96 86 75 65 55 52 47
178 154 182 258 276 287 252 235 233 228 230 225 230 241 250 231 222 214 206 204 201 200 194 189 188 187 186 186 185 183 183 181 177 167 155 139 125 113 101 89 74 60 56 53
190 167 188 222 190 211 234 237 229 227 233 235 234 236 237 227 223 216 213 211 205 199 192 189 188 186 187 187 186 183 181 182 178 172 163 149 137 129 116 104 88 70 61 56